This is the latest recevied weather packets stored in our database for station/object KF7SOJ. If no packets are shown the sender has not sent any weather packets the latest 10 day(s).
| Time | Temp. | Humidity | Pressure | Rain* | Wind** | Luminosity | Snow |
|---|---|---|---|---|---|---|---|
| 1788416297 | 18.33° C | 39% | 925.4 hPa | 0 mm | - | 0 W/m² | - |
| 1788415995 | 18.89° C | 38% | 925.3 hPa | 0 mm | - | 0 W/m² | - |
| 1788415692 | 18.89° C | 37% | 925.4 hPa | 0 mm | - | 0 W/m² | - |
| 1788415391 | 18.89° C | 36% | 925.3 hPa | 0 mm | - | 0 W/m² | - |
| 1788415089 | 18.89° C | 37% | 925.4 hPa | 0 mm | - | 0 W/m² | - |
| 1788414788 | 18.33° C | 39% | 925.5 hPa | 0 mm | - | 0 W/m² | - |
| 1788414483 | 18.33° C | 39% | 925.6 hPa | 0 mm | - | 0 W/m² | - |
| 1788414183 | 18.33° C | 40% | 925.4 hPa | 0 mm | - | 0 W/m² | - |
| 1788413879 | 18.89° C | 40% | 925.6 hPa | 0 mm | - | 0 W/m² | - |
| 1788413574 | 18.89° C | 38% | 925.5 hPa | 0 mm | - | 0 W/m² | - |
| 1788413269 | 21.11° C | 31% | 925.2 hPa | 0 mm | - | 0 W/m² | - |
| 1788412965 | 21.11° C | 31% | 925.3 hPa | 0 mm | - | 0 W/m² | - |
| 1788412660 | 21.11° C | 31% | 925.2 hPa | 0 mm | - | 0 W/m² | - |
| 1788412356 | 20.56° C | 31% | 925.1 hPa | 0 mm | - | 0 W/m² | - |
| 1788412051 | 20.56° C | 31% | 925 hPa | 0 mm | - | 0 W/m² | - |
| 1788411750 | 21.11° C | 31% | 924.8 hPa | 0 mm | - | 0 W/m² | - |
| 1788411445 | 21.11° C | 31% | 924.7 hPa | 0 mm | - | 0 W/m² | - |
| 1788411141 | 21.11° C | 31% | 924.8 hPa | 0 mm | - | 0 W/m² | - |
| 1788410837 | 21.11° C | 31% | 924.9 hPa | 0 mm | - | 0 W/m² | - |
| 1788410532 | 21.11° C | 32% | 924.9 hPa | 0 mm | - | 0 W/m² | - |
| 1788410230 | 21.11° C | 32% | 925 hPa | 0 mm | - | 0 W/m² | - |
| 1788409929 | 21.11° C | 31% | 924.8 hPa | 0 mm | - | 0 W/m² | - |
| 1788409628 | 21.67° C | 31% | 925 hPa | 0 mm | - | 0 W/m² | - |
| 1788409323 | 21.67° C | 31% | 925 hPa | 0 mm | - | 0 W/m² | - |
| 1788409037 | 21.67° C | 31% | 924.9 hPa | 0 mm | - | 0 W/m² | - |
* Rain latest hour (hover to see other rain measurements)
** Current wind speed in m/s (hover to see current wind gust speed)